| time (UTC) | temp F | wind direction | speed MPH | gust MPH | rain 1hr in | rain 24hr in | rain mn in | humidity % | barometer mb |
| 20260510151050 | 71 | 200 | 5.0 | 8.0 | 0.00 | 0.00 | 0.00 | 61 | 1016.3 |
| 20260510150550 | 71 | 249 | 4.0 | 9.0 | 0.00 | 0.00 | 0.00 | 62 | 1016.4 |
| 20260510150050 | 71 | 247 | 4.0 | 9.0 | 0.00 | 0.00 | 0.00 | 61 | 1016.3 |
| 20260510145554 | 70 | 241 | 7.0 | 11.0 | 0.00 | 0.00 | 0.00 | 61 | 1016.5 |
| 20260510145049 | 70 | 261 | 5.0 | 11.0 | 0.00 | 0.00 | 0.00 | 62 | 1016.4 |
| 20260510144549 | 70 | 247 | 7.0 | 14.0 | 0.00 | 0.00 | 0.00 | 61 | 1016.6 |
| 20260510144049 | 71 | 269 | 9.0 | 13.0 | 0.00 | 0.00 | 0.00 | 61 | 1016.7 |
| 20260510143548 | 71 | 232 | 8.0 | 16.0 | 0.00 | 0.00 | 0.00 | 61 | 1016.7 |
| 20260510143053 | 71 | 262 | 10.0 | 17.0 | 0.00 | 0.00 | 0.00 | 61 | 1016.8 |
| 20260510142549 | 71 | 234 | 13.0 | 17.0 | 0.00 | 0.00 | 0.00 | 61 | 1016.8 |
| 20260510142048 | 71 | 277 | 7.0 | 14.0 | 0.00 | 0.00 | 0.00 | 62 | 1016.6 |
| 20260510141551 | 71 | 213 | 9.0 | 14.0 | 0.00 | 0.00 | 0.00 | 62 | 1016.4 |
| 20260510141047 | 71 | 238 | 10.0 | 14.0 | 0.00 | 0.00 | 0.00 | 62 | 1016.4 |
| 20260510140647 | 71 | 263 | 9.0 | 13.0 | 0.00 | 0.00 | 0.00 | 63 | 1016.4 |
| 20260510140047 | 71 | 268 | 10.0 | 13.0 | 0.00 | 0.00 | 0.00 | 62 | 1016.2 |
| 20260510135546 | 72 | 232 | 6.0 | 11.0 | 0.00 | 0.00 | 0.00 | 61 | 1016.2 |
| 20260510135046 | 72 | 217 | 8.0 | 13.0 | 0.00 | 0.00 | 0.00 | 62 | 1016.3 |
| 20260510134547 | 72 | 275 | 9.0 | 13.0 | 0.00 | 0.00 | 0.00 | 61 | 1016.3 |
| 20260510134045 | 72 | 290 | 7.0 | 12.0 | 0.00 | 0.00 | 0.00 | 61 | 1016.0 |
| 20260510133549 | 72 | 248 | 8.0 | 10.0 | 0.00 | 0.00 | 0.00 | 60 | 1016.1 |
| 20260510133044 | 72 | 252 | 5.0 | 11.0 | 0.00 | 0.00 | 0.00 | 62 | 1016.3 |
| 20260510132544 | 72 | 278 | 6.0 | 11.0 | 0.00 | 0.00 | 0.00 | 62 | 1016.4 |
| 20260510132043 | 72 | 265 | 8.0 | 11.0 | 0.00 | 0.00 | 0.00 | 62 | 1016.4 |
| 20260510131544 | 72 | 255 | 8.0 | 11.0 | 0.00 | 0.00 | 0.00 | 62 | 1016.5 |
| 20260510131044 | 72 | 275 | 8.0 | 11.0 | 0.00 | 0.00 | 0.00 | 62 | 1016.4 |
| 20260510130543 | 72 | 188 | 5.0 | 10.0 | 0.00 | 0.00 | 0.00 | 62 | 1016.0 |
| 20260510130043 | 72 | 250 | 4.0 | 13.0 | 0.00 | 0.00 | 0.00 | 62 | 1016.8 |
| 20260510125544 | 72 | 294 | 9.0 | 13.0 | 0.00 | 0.00 | 0.00 | 62 | 1017.1 |
| 20260510125043 | 72 | 281 | 8.0 | 14.0 | 0.00 | 0.00 | 0.00 | 62 | 1017.1 |
| 20260510124545 | 73 | 271 | 9.0 | 14.0 | 0.00 | 0.00 | 0.00 | 62 | 1017.1 |
| 20260510124043 | 73 | 271 | 8.0 | 16.0 | 0.00 | 0.00 | 0.00 | 62 | 1017.2 |
| 20260510123543 | 73 | 271 | 8.0 | 16.0 | 0.00 | 0.00 | 0.00 | 62 | 1017.3 |
| 20260510123043 | 74 | 232 | 11.0 | 15.0 | 0.00 | 0.00 | 0.00 | 61 | 1017.4 |
| 20260510122542 | 74 | 200 | 8.0 | 14.0 | 0.00 | 0.00 | 0.00 | 59 | 1017.5 |
| 20260510122042 | 74 | 225 | 10.0 | 14.0 | 0.00 | 0.00 | 0.00 | 58 | 1017.5 |
| 20260510121541 | 75 | 207 | 7.0 | 13.0 | 0.00 | 0.00 | 0.00 | 58 | 1017.6 |
| 20260510121042 | 75 | 233 | 8.0 | 13.0 | 0.00 | 0.00 | 0.00 | 57 | 1017.6 |
| 20260510120540 | 75 | 227 | 8.0 | 16.0 | 0.00 | 0.00 | 0.00 | 57 | 1017.6 |
| 20260510120041 | 75 | 245 | 10.0 | 16.0 | 0.00 | 0.00 | 0.00 | 57 | 1017.7 |
| 20260510115540 | 75 | 245 | 11.0 | 16.0 | 0.00 | 0.00 | 0.00 | 57 | 1017.6 |
| 20260510115041 | 76 | 250 | 8.0 | 16.0 | 0.00 | 0.00 | 0.00 | 56 | 1017.6 |
| 20260510114541 | 76 | 251 | 12.0 | 15.0 | 0.00 | 0.00 | 0.00 | 55 | 1017.6 |
| 20260510114039 | 76 | 274 | 10.0 | 15.0 | 0.00 | 0.00 | 0.00 | 56 | 1017.6 |
| 20260510113538 | 75 | 227 | 9.0 | 15.0 | 0.00 | 0.00 | 0.00 | 57 | 1017.5 |
| 20260510113040 | 75 | 198 | 9.0 | 13.0 | 0.00 | 0.00 | 0.00 | 57 | 1017.6 |
| 20260510112538 | 75 | 288 | 7.0 | 14.0 | 0.00 | 0.00 | 0.00 | 57 | 1017.6 |
| 20260510112040 | 75 | 246 | 7.0 | 14.0 | 0.00 | 0.00 | 0.00 | 57 | 1017.5 |
| 20260510111537 | 75 | 286 | 7.0 | 13.0 | 0.00 | 0.00 | 0.00 | 57 | 1017.5 |
| 20260510111036 | 75 | 263 | 7.0 | 11.0 | 0.00 | 0.00 | 0.00 | 57 | 1017.6 |
| 20260510110538 | 76 | 264 | 9.0 | 15.0 | 0.00 | 0.00 | 0.00 | 57 | 1017.5 |
| 20260510110037 | 75 | 288 | 9.0 | 15.0 | 0.00 | 0.00 | 0.00 | 58 | 1017.6 |
| 20260510105536 | 75 | 255 | 11.0 | 14.0 | 0.00 | 0.00 | 0.00 | 58 | 1017.5 |
| 20260510105036 | 74 | 233 | 10.0 | 14.0 | 0.00 | 0.00 | 0.00 | 59 | 1017.6 |
| 20260510104539 | 75 | 274 | 10.0 | 14.0 | 0.00 | 0.00 | 0.00 | 57 | 1017.6 |
| 20260510104035 | 76 | 231 | 6.0 | 10.0 | 0.00 | 0.00 | 0.00 | 56 | 1017.7 |
| 20260510103534 | 75 | 268 | 7.0 | 10.0 | 0.00 | 0.00 | 0.00 | 57 | 1017.7 |
| 20260510103034 | 76 | 240 | 6.0 | 9.0 | 0.00 | 0.00 | 0.00 | 56 | 1017.7 |
| 20260510102533 | 75 | 199 | 5.0 | 11.0 | 0.00 | 0.00 | 0.00 | 56 | 1017.8 |
| 20260510102033 | 75 | 261 | 5.0 | 11.0 | 0.00 | 0.00 | 0.00 | 56 | 1017.7 |
| 20260510101536 | 76 | 250 | 5.0 | 13.0 | 0.00 | 0.00 | 0.00 | 55 | 1017.8 |
| 20260510101031 | 75 | 207 | 6.0 | 13.0 | 0.00 | 0.00 | 0.00 | 56 | 1017.9 |
| 20260510100531 | 75 | 236 | 8.0 | 12.0 | 0.00 | 0.00 | 0.00 | 56 | 1017.9 |
| 20260510100038 | 75 | 257 | 8.0 | 12.0 | 0.00 | 0.00 | 0.00 | 56 | 1017.9 |
| 20260510095531 | 76 | 229 | 7.0 | 12.0 | 0.00 | 0.00 | 0.00 | 55 | 1018.0 |
| 20260510095029 | 76 | 260 | 6.0 | 11.0 | 0.00 | 0.00 | 0.00 | 56 | 1018.0 |
| 20260510094531 | 74 | 224 | 10.0 | 13.0 | 0.00 | 0.00 | 0.00 | 57 | 1018.2 |
| 20260510094028 | 75 | 249 | 9.0 | 13.0 | 0.00 | 0.00 | 0.00 | 57 | 1018.1 |
| 20260510093528 | 75 | 256 | 5.0 | 12.0 | 0.00 | 0.00 | 0.00 | 57 | 1018.1 |
| 20260510093039 | 75 | 244 | 9.0 | 12.0 | 0.00 | 0.00 | 0.00 | 57 | 1018.1 |
| 20260510092527 | 75 | 200 | 6.0 | 10.0 | 0.00 | 0.00 | 0.00 | 57 | 1018.0 |
| 20260510092029 | 75 | 198 | 6.0 | 11.0 | 0.00 | 0.00 | 0.00 | 57 | 1018.1 |
| 20260510091526 | 75 | 259 | 8.0 | 12.0 | 0.00 | 0.00 | 0.00 | 57 | 1018.0 |
| 20260510091025 | 75 | 183 | 7.0 | 11.0 | 0.00 | 0.00 | 0.00 | 56 | 1018.0 |
| 20260510090524 | 74 | 233 | 9.0 | 11.0 | 0.00 | 0.00 | 0.00 | 57 | 1018.1 |
| 20260510090024 | 74 | 208 | 7.0 | 10.0 | 0.00 | 0.00 | 0.00 | 56 | 1018.1 |
| 20260510085523 | 75 | 217 | 5.0 | 10.0 | 0.00 | 0.00 | 0.00 | 55 | 1018.1 |
| 20260510085020 | 75 | 245 | 5.0 | 10.0 | 0.00 | 0.00 | 0.00 | 56 | 1018.2 |
| 20260510084528 | 74 | 219 | 5.0 | 9.0 | 0.00 | 0.00 | 0.00 | 56 | 1018.1 |
| 20260510084018 | 74 | 225 | 4.0 | 9.0 | 0.00 | 0.00 | 0.00 | 57 | 1018.1 |
| 20260510083517 | 74 | 197 | 4.0 | 10.0 | 0.00 | 0.00 | 0.00 | 58 | 1018.1 |
| 20260510083016 | 73 | 258 | 5.0 | 14.0 | 0.00 | 0.00 | 0.00 | 58 | 1018.2 |
| 20260510082514 | 73 | 232 | 8.0 | 14.0 | 0.00 | 0.00 | 0.00 | 58 | 1018.2 |
| 20260510082013 | 73 | 202 | 5.0 | 12.0 | 0.00 | 0.00 | 0.00 | 58 | 1018.2 |
| 20260510081522 | 73 | 244 | 8.0 | 12.0 | 0.00 | 0.00 | 0.00 | 57 | 1018.2 |
| 20260510081010 | 73 | 213 | 6.0 | 10.0 | 0.00 | 0.00 | 0.00 | 58 | 1018.2 |
| 20260510080508 | 73 | 286 | 4.0 | 9.0 | 0.00 | 0.00 | 0.00 | 59 | 1018.0 |
| 20260510080017 | 73 | 257 | 4.0 | 9.0 | 0.00 | 0.00 | 0.00 | 58 | 1018.0 |
| 20260510075506 | 73 | 207 | 4.0 | 9.0 | 0.00 | 0.00 | 0.00 | 59 | 1017.9 |
| 20260510075006 | 72 | 256 | 5.0 | 8.0 | 0.00 | 0.00 | 0.00 | 60 | 1017.8 |
| 20260510074504 | 72 | 210 | 5.0 | 8.0 | 0.00 | 0.00 | 0.00 | 60 | 1017.7 |
| 20260510074003 | 71 | 242 | 2.0 | 8.0 | 0.00 | 0.00 | 0.00 | 62 | 1017.6 |
| 20260510073503 | 72 | 267 | 5.0 | 8.0 | 0.00 | 0.00 | 0.00 | 62 | 1017.6 |
| 20260510073102 | 72 | 184 | 3.0 | 7.0 | 0.00 | 0.00 | 0.00 | 62 | 1017.5 |
| 20260510072558 | 71 | 164 | 4.0 | 9.0 | 0.00 | 0.00 | 0.00 | 64 | 1017.6 |
| 20260510072057 | 70 | 273 | 4.0 | 9.0 | 0.00 | 0.00 | 0.00 | 66 | 1017.6 |
| 20260510071559 | 70 | 252 | 5.0 | 8.0 | 0.00 | 0.00 | 0.00 | 66 | 1017.6 |
| 20260510071054 | 70 | 266 | 5.0 | 7.0 | 0.00 | 0.00 | 0.00 | 65 | 1017.6 |
| 20260510070553 | 70 | 262 | 3.0 | 7.0 | 0.00 | 0.00 | 0.00 | 65 | 1017.5 |
| 20260510070051 | 70 | 256 | 3.0 | 7.0 | 0.00 | 0.00 | 0.00 | 65 | 1017.5 |
| 20260510065550 | 70 | 241 | 2.0 | 6.0 | 0.00 | 0.00 | 0.00 | 65 | 1017.5 |
| 20260510065049 | 70 | 186 | 1.0 | 7.0 | 0.00 | 0.00 | 0.00 | 65 | 1017.5 |
| 20260510064547 | 69 | 185 | 3.0 | 7.0 | 0.00 | 0.00 | 0.00 | 66 | 1017.4 |
| 20260510064046 | 69 | 181 | 3.0 | 7.0 | 0.00 | 0.00 | 0.00 | 67 | 1017.5 |
| 20260510063545 | 69 | 246 | 4.0 | 8.0 | 0.00 | 0.00 | 0.00 | 67 | 1017.5 |
| 20260510063045 | 68 | 234 | 5.0 | 8.0 | 0.00 | 0.00 | 0.00 | 67 | 1017.4 |
| 20260510062541 | 68 | 240 | 3.0 | 8.0 | 0.00 | 0.00 | 0.00 | 68 | 1017.4 |
| 20260510062040 | 68 | 215 | 3.0 | 7.0 | 0.00 | 0.00 | 0.00 | 69 | 1017.5 |
| 20260510061547 | 67 | 222 | 4.0 | 7.0 | 0.00 | 0.00 | 0.00 | 69 | 1017.4 |
| 20260510061038 | 67 | 209 | 3.0 | 6.0 | 0.00 | 0.00 | 0.00 | 69 | 1017.5 |
| 20260510060539 | 67 | 244 | 4.0 | 5.0 | 0.00 | 0.00 | 0.00 | 70 | 1017.5 |
| 20260510060036 | 67 | 204 | 3.0 | 5.0 | 0.00 | 0.00 | 0.00 | 70 | 1017.6 |
| 20260510055534 | 67 | 203 | 3.0 | 5.0 | 0.00 | 0.00 | 0.00 | 70 | 1017.5 |
| 20260510055033 | 67 | 196 | 2.0 | 4.0 | 0.00 | 0.00 | 0.00 | 70 | 1017.4 |
| 20260510054532 | 66 | 253 | 1.0 | 3.0 | 0.00 | 0.00 | 0.00 | 72 | 1017.3 |
| 20260510054031 | 66 | 252 | 1.0 | 4.0 | 0.00 | 0.00 | 0.00 | 71 | 1017.3 |
| 20260510053528 | 66 | 252 | 2.0 | 3.0 | 0.00 | 0.00 | 0.00 | 71 | 1017.2 |
| 20260510053027 | 65 | 252 | 0.0 | 3.0 | 0.00 | 0.00 | 0.00 | 72 | 1017.2 |
| 20260510052530 | 65 | 261 | 1.0 | 3.0 | 0.00 | 0.00 | 0.00 | 72 | 1017.2 |
| 20260510052024 | 65 | 264 | 0.0 | 3.0 | 0.00 | 0.00 | 0.00 | 72 | 1017.0 |
| 20260510051523 | 65 | 290 | 1.0 | 3.0 | 0.00 | 0.00 | 0.00 | 71 | 1017.0 |
| 20260510051021 | 65 | 294 | 0.0 | 2.0 | 0.00 | 0.00 | 0.00 | 71 | 1016.9 |
| 20260510050521 | 65 | 59 | 0.0 | 2.0 | 0.00 | 0.00 | 0.00 | 71 | 1016.8 |
| 20260510050020 | 65 | 62 | 0.0 | 0.0 | 0.00 | 0.00 | 0.00 | 71 | 1016.7 |
| 20260510045519 | 64 | 61 | 0.0 | 0.0 | 0.00 | 0.00 | 0.00 | 72 | 1016.8 |
| 20260510045018 | 63 | 50 | 0.0 | 0.0 | 0.00 | 0.00 | 0.00 | 72 | 1017.0 |
| 20260510044518 | 63 | 49 | 0.0 | 1.0 | 0.00 | 0.00 | 0.00 | 73 | 1016.9 |
| 20260510044016 | 62 | 49 | 0.0 | 1.0 | 0.00 | 0.00 | 0.00 | 74 | 1016.9 |
| 20260510043516 | 62 | 47 | 0.0 | 3.0 | 0.00 | 0.00 | 0.00 | 74 | 1017.1 |
| 20260510043020 | 61 | 44 | 0.0 | 4.0 | 0.00 | 0.00 | 0.00 | 76 | 1016.9 |
| 20260510042514 | 60 | 15 | 2.0 | 4.0 | 0.00 | 0.00 | 0.00 | 76 | 1016.9 |
| 20260510042012 | 60 | 45 | 2.0 | 4.0 | 0.00 | 0.00 | 0.00 | 76 | 1016.9 |
| 20260510041511 | 60 | 31 | 2.0 | 5.0 | 0.00 | 0.00 | 0.00 | 76 | 1016.8 |
| 20260510041010 | 60 | 42 | 3.0 | 5.0 | 0.00 | 0.00 | 0.00 | 76 | 1016.7 |
| 20260510040509 | 59 | 47 | 3.0 | 7.0 | 0.00 | 0.00 | 0.00 | 78 | 1016.6 |
| 20260510040008 | 59 | 55 | 4.0 | 7.0 | 0.00 | 0.00 | 0.00 | 78 | 1016.5 |
| 20260510035506 | 59 | 11 | 3.0 | 6.0 | 0.00 | 0.00 | 0.00 | 78 | 1016.5 |
| 20260510035005 | 58 | 46 | 3.0 | 6.0 | 0.00 | 0.00 | 0.00 | 78 | 1016.5 |
| 20260510034504 | 58 | 19 | 3.0 | 6.0 | 0.00 | 0.00 | 0.00 | 78 | 1016.4 |
| 20260510034003 | 58 | 24 | 3.0 | 6.0 | 0.00 | 0.00 | 0.00 | 78 | 1016.3 |
| 20260510033501 | 59 | 19 | 3.0 | 4.0 | 0.00 | 0.00 | 0.00 | 77 | 1016.3 |
| 20260510033001 | 59 | 43 | 1.0 | 3.0 | 0.00 | 0.00 | 0.00 | 77 | 1016.3 |
| 20260510032601 | 59 | 52 | 1.0 | 2.0 | 0.00 | 0.00 | 0.00 | 76 | 1016.2 |
| 20260510032104 | 59 | 58 | 1.0 | 3.0 | 0.00 | 0.00 | 0.00 | 76 | 1016.2 |
| 20260510031601 | 59 | 59 | 1.0 | 3.0 | 0.00 | 0.00 | 0.00 | 76 | 1016.3 |
| 20260510031059 | 59 | 56 | 0.0 | 3.0 | 0.00 | 0.00 | 0.00 | 76 | 1016.3 |
| 20260510030558 | 59 | 42 | 1.0 | 4.0 | 0.00 | 0.00 | 0.00 | 76 | 1016.3 |
| 20260510030058 | 59 | 38 | 2.0 | 4.0 | 0.00 | 0.00 | 0.00 | 75 | 1016.4 |
| 20260510025558 | 60 | 57 | 1.0 | 3.0 | 0.00 | 0.00 | 0.00 | 76 | 1016.2 |
| 20260510025058 | 59 | 57 | 0.0 | 2.0 | 0.00 | 0.00 | 0.00 | 75 | 1016.2 |
| 20260510024602 | 60 | 56 | 0.0 | 3.0 | 0.00 | 0.00 | 0.00 | 76 | 1016.1 |
| 20260510024057 | 59 | 55 | 1.0 | 3.0 | 0.00 | 0.00 | 0.00 | 76 | 1016.2 |
| 20260510023557 | 59 | 48 | 2.0 | 5.0 | 0.00 | 0.00 | 0.00 | 76 | 1016.1 |
| 20260510023057 | 59 | 63 | 2.0 | 6.0 | 0.00 | 0.00 | 0.00 | 77 | 1016.0 |
| 20260510022556 | 59 | 59 | 4.0 | 8.0 | 0.00 | 0.00 | 0.00 | 77 | 1016.1 |
| 20260510022056 | 59 | 41 | 5.0 | 8.0 | 0.00 | 0.00 | 0.00 | 77 | 1016.2 |
| 20260510021556 | 59 | 20 | 2.0 | 4.0 | 0.00 | 0.00 | 0.00 | 77 | 1016.2 |
| 20260510021057 | 58 | 38 | 2.0 | 5.0 | 0.00 | 0.00 | 0.00 | 77 | 1016.2 |
| 20260510020555 | 58 | 53 | 3.0 | 5.0 | 0.00 | 0.00 | 0.00 | 77 | 1016.0 |
| 20260510020054 | 59 | 42 | 2.0 | 4.0 | 0.00 | 0.00 | 0.00 | 76 | 1016.0 |
| 20260510015554 | 59 | 57 | 2.0 | 5.0 | 0.00 | 0.00 | 0.00 | 76 | 1016.0 |
| 20260510015052 | 59 | 57 | 3.0 | 5.0 | 0.00 | 0.00 | 0.00 | 76 | 1016.0 |
| 20260510014552 | 59 | 41 | 3.0 | 4.0 | 0.00 | 0.00 | 0.00 | 75 | 1016.1 |
| 20260510014052 | 60 | 44 | 1.0 | 5.0 | 0.00 | 0.00 | 0.00 | 74 | 1016.1 |
| 20260510013553 | 60 | 50 | 3.0 | 5.0 | 0.00 | 0.00 | 0.00 | 74 | 1016.0 |
| 20260510013054 | 60 | 30 | 3.0 | 5.0 | 0.00 | 0.00 | 0.00 | 73 | 1016.0 |
| 20260510012551 | 59 | 63 | 3.0 | 6.0 | 0.00 | 0.00 | 0.00 | 75 | 1016.0 |
| 20260510012050 | 59 | 32 | 3.0 | 6.0 | 0.00 | 0.00 | 0.00 | 75 | 1016.0 |
| 20260510011555 | 59 | 22 | 4.0 | 5.0 | 0.00 | 0.00 | 0.00 | 75 | 1016.1 |
| 20260510011050 | 59 | 38 | 3.0 | 5.0 | 0.00 | 0.00 | 0.00 | 75 | 1016.1 |
| 20260510010551 | 59 | 21 | 3.0 | 6.0 | 0.00 | 0.00 | 0.00 | 74 | 1016.0 |
| 20260510010050 | 59 | 13 | 3.0 | 6.0 | 0.00 | 0.00 | 0.00 | 74 | 1016.0 |
| 20260510005548 | 59 | 48 | 4.0 | 5.0 | 0.00 | 0.00 | 0.00 | 74 | 1015.8 |
| 20260510005047 | 60 | 26 | 3.0 | 6.0 | 0.00 | 0.00 | 0.00 | 73 | 1015.8 |
| 20260510004550 | 60 | 30 | 5.0 | 6.0 | 0.00 | 0.00 | 0.00 | 73 | 1015.8 |
| 20260510004046 | 60 | 26 | 3.0 | 5.0 | 0.00 | 0.00 | 0.00 | 73 | 1015.8 |
| 20260510003545 | 60 | 46 | 2.0 | 4.0 | 0.00 | 0.00 | 0.00 | 74 | 1015.7 |
| 20260510003103 | 60 | 45 | 2.0 | 4.0 | 0.00 | 0.00 | 0.00 | 74 | 1015.7 |
| 20260510002543 | 60 | 46 | 2.0 | 3.0 | 0.00 | 0.00 | 0.00 | 73 | 1015.8 |
| 20260510002043 | 60 | 50 | 2.0 | 4.0 | 0.00 | 0.00 | 0.00 | 74 | 1015.9 |
| 20260510001543 | 60 | 44 | 2.0 | 4.0 | 0.00 | 0.00 | 0.00 | 73 | 1015.8 |
| 20260510001042 | 60 | 42 | 2.0 | 4.0 | 0.00 | 0.00 | 0.00 | 73 | 1015.9 |
| 20260510000542 | 61 | 43 | 1.0 | 4.0 | 0.00 | 0.00 | 0.00 | 72 | 1015.9 |
| 20260510000046 | 61 | 44 | 2.0 | 5.0 | 0.00 | 0.00 | 0.00 | 72 | 1016.0 |
| 20260509235541 | 61 | 42 | 2.0 | 7.0 | 0.00 | 0.00 | 0.00 | 72 | 1016.0 |
| 20260509235041 | 60 | 51 | 2.0 | 7.0 | 0.00 | 0.00 | 0.00 | 73 | 1015.9 |
| 20260509234558 | 60 | 22 | 4.0 | 6.0 | 0.00 | 0.00 | 0.00 | 73 | 1016.0 |
| 20260509234040 | 60 | 23 | 4.0 | 5.0 | 0.00 | 0.00 | 0.00 | 73 | 1016.1 |
| 20260509233538 | 60 | 37 | 2.0 | 5.0 | 0.00 | 0.00 | 0.00 | 73 | 1016.1 |
| 20260509233041 | 61 | 21 | 2.0 | 4.0 | 0.00 | 0.00 | 0.00 | 72 | 1016.1 |
| 20260509232536 | 61 | 14 | 2.0 | 4.0 | 0.00 | 0.00 | 0.00 | 71 | 1016.1 |
| 20260509232036 | 62 | 44 | 1.0 | 5.0 | 0.00 | 0.00 | 0.00 | 71 | 1016.1 |
| 20260509231547 | 62 | 44 | 3.0 | 5.0 | 0.00 | 0.00 | 0.00 | 70 | 1016.2 |
| 20260509231034 | 62 | 40 | 3.0 | 8.0 | 0.00 | 0.00 | 0.00 | 70 | 1016.1 |
| 20260509230534 | 61 | 57 | 4.0 | 8.0 | 0.00 | 0.00 | 0.00 | 70 | 1016.2 |
| 20260509230036 | 62 | 350 | 4.0 | 7.0 | 0.00 | 0.00 | 0.00 | 70 | 1016.3 |
| 20260509225534 | 62 | 13 | 5.0 | 7.0 | 0.00 | 0.00 | 0.00 | 69 | 1016.2 |
| 20260509225033 | 62 | 59 | 0.0 | 4.0 | 0.00 | 0.00 | 0.00 | 69 | 1016.3 |
| 20260509224535 | 63 | 19 | 3.0 | 5.0 | 0.00 | 0.00 | 0.00 | 68 | 1016.3 |
| 20260509224033 | 63 | 30 | 2.0 | 6.0 | 0.00 | 0.00 | 0.00 | 68 | 1016.3 |
| 20260509223533 | 62 | 20 | 3.0 | 8.0 | 0.00 | 0.00 | 0.00 | 70 | 1016.4 |
| 20260509223034 | 62 | 36 | 5.0 | 8.0 | 0.00 | 0.00 | 0.00 | 70 | 1016.4 |
| 20260509222531 | 62 | 14 | 5.0 | 7.0 | 0.00 | 0.00 | 0.00 | 70 | 1016.5 |
| 20260509222035 | 62 | 35 | 1.0 | 4.0 | 0.00 | 0.00 | 0.00 | 70 | 1016.4 |
| 20260509221531 | 62 | 15 | 1.0 | 4.0 | 0.00 | 0.00 | 0.00 | 70 | 1016.5 |
| 20260509221032 | 62 | 21 | 1.0 | 3.0 | 0.00 | 0.00 | 0.00 | 71 | 1016.5 |
| 20260509220531 | 62 | 41 | 1.0 | 4.0 | 0.00 | 0.00 | 0.00 | 71 | 1016.4 |
| 20260509220030 | 62 | 40 | 1.0 | 4.0 | 0.00 | 0.00 | 0.00 | 72 | 1016.5 |
| 20260509215530 | 61 | 42 | 2.0 | 5.0 | 0.00 | 0.00 | 0.00 | 72 | 1016.5 |
| 20260509215030 | 61 | 15 | 2.0 | 6.0 | 0.00 | 0.00 | 0.00 | 72 | 1016.5 |
| 20260509214528 | 62 | 15 | 1.0 | 4.0 | 0.00 | 0.00 | 0.00 | 71 | 1016.5 |
| 20260509214027 | 62 | 11 | 1.0 | 4.0 | 0.00 | 0.00 | 0.00 | 70 | 1016.5 |
| 20260509213527 | 63 | 10 | 2.0 | 6.0 | 0.00 | 0.00 | 0.00 | 69 | 1016.6 |
| 20260509213027 | 62 | 74 | 2.0 | 6.0 | 0.00 | 0.00 | 0.00 | 70 | 1016.4 |
| 20260509212528 | 62 | 64 | 3.0 | 6.0 | 0.00 | 0.00 | 0.00 | 70 | 1016.5 |
| 20260509212027 | 62 | 31 | 4.0 | 10.0 | 0.00 | 0.00 | 0.00 | 70 | 1016.5 |
| 20260509211524 | 62 | 50 | 5.0 | 10.0 | 0.00 | 0.00 | 0.00 | 70 | 1016.5 |
| 20260509211023 | 63 | 10 | 4.0 | 6.0 | 0.00 | 0.00 | 0.00 | 69 | 1016.4 |
| 20260509210521 | 63 | 25 | 2.0 | 5.0 | 0.00 | 0.00 | 0.00 | 68 | 1016.4 |
| 20260509210023 | 64 | 11 | 3.0 | 5.0 | 0.00 | 0.00 | 0.00 | 68 | 1016.4 |
| 20260509205521 | 64 | 18 | 1.0 | 4.0 | 0.00 | 0.00 | 0.00 | 68 | 1016.3 |
| 20260509205021 | 64 | 35 | 2.0 | 4.0 | 0.00 | 0.00 | 0.00 | 68 | 1016.4 |
| 20260509204520 | 64 | 13 | 2.0 | 4.0 | 0.00 | 0.00 | 0.00 | 68 | 1016.4 |
| 20260509204021 | 64 | 30 | 2.0 | 4.0 | 0.00 | 0.00 | 0.00 | 67 | 1016.4 |
| 20260509203520 | 64 | 58 | 1.0 | 5.0 | 0.00 | 0.00 | 0.00 | 67 | 1016.3 |
| 20260509203023 | 64 | 49 | 3.0 | 6.0 | 0.00 | 0.00 | 0.00 | 68 | 1016.4 |
| 20260509202520 | 64 | 40 | 3.0 | 6.0 | 0.00 | 0.00 | 0.00 | 68 | 1016.4 |
| 20260509202022 | 64 | 42 | 0.0 | 4.0 | 0.00 | 0.00 | 0.00 | 68 | 1016.4 |
| 20260509201521 | 64 | 19 | 3.0 | 4.0 | 0.00 | 0.00 | 0.00 | 68 | 1016.4 |
| 20260509201021 | 65 | 14 | 3.0 | 5.0 | 0.00 | 0.00 | 0.00 | 67 | 1016.4 |
| 20260509200522 | 65 | 21 | 2.0 | 6.0 | 0.00 | 0.00 | 0.00 | 67 | 1016.4 |
| 20260509200022 | 65 | 61 | 3.0 | 8.0 | 0.00 | 0.00 | 0.00 | 67 | 1016.4 |
| 20260509195621 | 65 | 56 | 4.0 | 8.0 | 0.00 | 0.00 | 0.00 | 68 | 1016.4 |
| 20260509195018 | 66 | 16 | 3.0 | 5.0 | 0.00 | 0.00 | 0.00 | 67 | 1016.3 |
| 20260509194523 | 67 | 321 | 1.0 | 3.0 | 0.00 | 0.00 | 0.00 | 67 | 1016.1 |
| 20260509194018 | 67 | 234 | 1.0 | 2.0 | 0.00 | 0.00 | 0.00 | 67 | 1016.1 |
| 20260509193519 | 67 | 232 | 0.0 | 2.0 | 0.00 | 0.00 | 0.00 | 67 | 1016.1 |
| 20260509193019 | 67 | 202 | 0.0 | 2.0 | 0.00 | 0.00 | 0.00 | 67 | 1016.1 |
| 20260509192518 | 67 | 190 | 0.0 | 2.0 | 0.00 | 0.00 | 0.00 | 67 | 1016.2 |
| 20260509192017 | 67 | 189 | 0.0 | 0.0 | 0.00 | 0.00 | 0.00 | 67 | 1016.1 |
| 20260509191518 | 67 | 189 | 0.0 | 0.0 | 0.00 | 0.00 | 0.00 | 67 | 1016.2 |
| 20260509191017 | 67 | 189 | 0.0 | 0.0 | 0.00 | 0.00 | 0.00 | 67 | 1016.2 |
| 20260509190517 | 67 | 189 | 0.0 | 2.0 | 0.00 | 0.00 | 0.00 | 67 | 1016.3 |
| 20260509190019 | 67 | 189 | 0.0 | 2.0 | 0.00 | 0.00 | 0.00 | 67 | 1016.2 |
| 20260509185517 | 67 | 191 | 1.0 | 2.0 | 0.00 | 0.00 | 0.00 | 67 | 1016.1 |
| 20260509185017 | 67 | 191 | 1.0 | 3.0 | 0.00 | 0.00 | 0.00 | 67 | 1016.2 |
| 20260509184517 | 67 | 191 | 0.0 | 3.0 | 0.00 | 0.00 | 0.00 | 67 | 1016.2 |
| 20260509184016 | 67 | 191 | 1.0 | 6.0 | 0.00 | 0.00 | 0.00 | 66 | 1016.2 |
| 20260509183517 | 67 | 192 | 2.0 | 7.0 | 0.00 | 0.00 | 0.00 | 66 | 1016.1 |
| 20260509183023 | 68 | 180 | 2.0 | 5.0 | 0.00 | 0.00 | 0.00 | 66 | 1016.0 |
| 20260509182515 | 68 | 259 | 3.0 | 7.0 | 0.00 | 0.00 | 0.00 | 65 | 1016.1 |
| 20260509182015 | 68 | 238 | 4.0 | 7.0 | 0.00 | 0.00 | 0.00 | 65 | 1016.0 |
| 20260509181515 | 68 | 245 | 3.0 | 7.0 | 0.00 | 0.00 | 0.00 | 65 | 1016.0 |
| 20260509181015 | 68 | 259 | 4.0 | 7.0 | 0.00 | 0.00 | 0.00 | 65 | 1015.9 |
| 20260509180518 | 68 | 263 | 4.0 | 9.0 | 0.00 | 0.00 | 0.00 | 64 | 1015.8 |
| 20260509180015 | 68 | 269 | 6.0 | 9.0 | 0.00 | 0.00 | 0.00 | 64 | 1015.7 |
| 20260509175514 | 68 | 259 | 5.0 | 8.0 | 0.00 | 0.00 | 0.00 | 63 | 1015.6 |
| 20260509175014 | 68 | 271 | 5.0 | 8.0 | 0.00 | 0.00 | 0.00 | 63 | 1015.5 |
| 20260509174515 | 68 | 257 | 5.0 | 9.0 | 0.00 | 0.00 | 0.00 | 63 | 1015.5 |
| 20260509174015 | 68 | 277 | 6.0 | 11.0 | 0.00 | 0.00 | 0.00 | 63 | 1015.4 |
| 20260509173514 | 68 | 284 | 7.0 | 11.0 | 0.00 | 0.00 | 0.00 | 62 | 1015.4 |
| 20260509173022 | 68 | 269 | 5.0 | 10.0 | 0.00 | 0.00 | 0.00 | 62 | 1015.3 |
| 20260509172513 | 68 | 258 | 6.0 | 10.0 | 0.00 | 0.00 | 0.00 | 61 | 1015.2 |
| 20260509172013 | 68 | 264 | 7.0 | 12.0 | 0.00 | 0.00 | 0.00 | 60 | 1015.2 |
| 20260509171513 | 69 | 240 | 8.0 | 12.0 | 0.00 | 0.00 | 0.00 | 60 | 1015.2 |
| 20260509171013 | 69 | 247 | 8.0 | 12.0 | 0.00 | 0.00 | 0.00 | 60 | 1015.2 |
| 20260509170512 | 69 | 285 | 7.0 | 12.0 | 0.00 | 0.00 | 0.00 | 59 | 1015.2 |
| 20260509170013 | 69 | 259 | 7.0 | 12.0 | 0.00 | 0.00 | 0.00 | 58 | 1015.3 |
| 20260509165512 | 69 | 268 | 8.0 | 11.0 | 0.00 | 0.00 | 0.00 | 57 | 1015.3 |
| 20260509165014 | 69 | 254 | 7.0 | 12.0 | 0.00 | 0.00 | 0.00 | 58 | 1015.3 |
| 20260509164512 | 69 | 259 | 8.0 | 14.0 | 0.00 | 0.00 | 0.00 | 57 | 1015.0 |
| 20260509164011 | 70 | 264 | 9.0 | 14.0 | 0.00 | 0.00 | 0.00 | 56 | 1015.0 |
| 20260509163515 | 70 | 263 | 10.0 | 14.0 | 0.00 | 0.00 | 0.00 | 56 | 1015.2 |
| 20260509163011 | 70 | 264 | 8.0 | 14.0 | 0.00 | 0.00 | 0.00 | 55 | 1015.2 |
| 20260509162511 | 70 | 270 | 8.0 | 13.0 | 0.00 | 0.00 | 0.00 | 54 | 1015.2 |
| 20260509162013 | 70 | 247 | 8.0 | 13.0 | 0.00 | 0.00 | 0.00 | 53 | 1015.1 |
| 20260509161511 | 71 | 261 | 8.0 | 13.0 | 0.00 | 0.00 | 0.00 | 53 | 1015.1 |
| 20260509161010 | 71 | 248 | 9.0 | 14.0 | 0.00 | 0.00 | 0.00 | 52 | 1015.0 |
| 20260509160513 | 71 | 261 | 11.0 | 14.0 | 0.00 | 0.00 | 0.00 | 52 | 1015.1 |
| 20260509160010 | 71 | 238 | 10.0 | 14.0 | 0.00 | 0.00 | 0.00 | 51 | 1015.0 |
| 20260509155507 | 72 | 255 | 9.0 | 13.0 | 0.00 | 0.00 | 0.00 | 51 | 1014.8 |
| 20260509155007 | 72 | 262 | 10.0 | 13.0 | 0.00 | 0.00 | 0.00 | 50 | 1014.8 |
| 20260509154505 | 72 | 275 | 9.0 | 16.0 | 0.00 | 0.00 | 0.00 | 50 | 1014.9 |
| 20260509154007 | 72 | 283 | 12.0 | 16.0 | 0.00 | 0.00 | 0.00 | 49 | 1015.1 |
| 20260509153501 | 73 | 252 | 8.0 | 15.0 | 0.00 | 0.00 | 0.00 | 48 | 1014.9 |
| 20260509153001 | 72 | 293 | 11.0 | 16.0 | 0.00 | 0.00 | 0.00 | 47 | 1014.9 |
| 20260509152600 | 73 | 262 | 10.0 | 17.0 | 0.00 | 0.00 | 0.00 | 47 | 1014.8 |
| 20260509152059 | 73 | 264 | 12.0 | 17.0 | 0.00 | 0.00 | 0.00 | 46 | 1014.8 |
| 20260509151559 | 73 | 244 | 9.0 | 15.0 | 0.00 | 0.00 | 0.00 | 45 | 1014.8 |